NOAA NWS Hourly Roundups by Site

Regional Weather Roundup for State College, PA

To Select Another Site Choose from List

Select Site:  

035
ASUS41 KCTP 301410
RWRCTP

REGIONAL WEATHER ROUNDUP
NATIONAL WEATHER SERVICE STATE COLLEGE PA
1000 AM EDT WED SEP 30 2020

Note: "fair" indicates few or no clouds below 12,000 feet with no
significant weather and/or obstructions to visibility.

* = STATION THAT DOES NOT REPORT PRECIPITATION /E.G. RAIN...SNOW...ETC/
    THUNDER OR FOG.

PAZ002>004-007>009-013>016-020>023-029>032-301500-
WESTERN PENNSYLVANIA

CITY           SKY/WX    TMP DP  RH WIND       PRES   REMARKS
ERIE           CLOUDY    55  46  71 SW18      29.65R
MEADVILLE      CLOUDY    50  45  83 SW10      29.71R
FRANKLIN       PTSUNNY   51  46  83 SW12G20   29.74R
NEW CASTLE     CLOUDY    53  47  79 SW13G18   29.76S
BEAVER COUNTY  FAIR      56  47  71 SW13G20   29.78R
BUTLER         PTSUNNY   53  48  83 SW12G20   29.79R
PITTSBURGH INT FAIR      53  46  77 SW10      29.79R
PITTSBURGH     FAIR      53  47  79 SW12G21   29.80R
INDIANA*       CLOUDY    54  48  82 W16       29.83R
LATROBE        CLOUDY    54  50  87 SW15      29.82R
WASHINGTON CO* FAIR      54  48  80 SW13G21   29.85R
$$

PAZ004>006-010>012-017>019-024>028-033>037-041-042-045-046-049>053-301500-
CENTRAL PENNSYLVANIA

CITY           SKY/WX    TMP DP  RH WIND       PRES   REMARKS
BRADFORD       CLOUDY    50  43  77 SW12G23   29.71R
ST MARYS       CLOUDY    50  46  87 W12G20    29.77R
DUBOIS         PTSUNNY   52  46  80 W18G25    29.75R
CLEARFIELD     CLOUDY    51  47  86 SW9       29.77R
JOHNSTOWN      PTSUNNY   49  42  77 W13G24    29.80R
SOMERSET       PTSUNNY   48  43  81 W17       29.83R
ALTOONA        CLOUDY    54  45  71 SW10      29.80R
STATE COLLEGE  PTSUNNY   55  48  76 SW12G17   29.76R
REEDSVILLE     FAIR      57  50  77 SW9G15    29.77
WELLSBORO      CLOUDY    50  46  87 SW13      29.70R
WILLIAMSPORT   PTSUNNY   57  48  72 W13G23    29.73R
SELINSGROVE    PTSUNNY   58  50  75 VRB6      29.77R
FT INDIANTOWN  MOSUNNY   60  50  69 W13       29.77R
CAPITAL CITY   FAIR      63  49  60 W13G21    29.78R
HARRISBURG     FAIR      61  49  64 W17       29.78R
YORK           FAIR      60  49  66 W12G21    29.79R
$$

PAZ038>040-043-044-047-048-054-055-060>062-067>071-301500-
EASTERN PENNSYLVANIA

CITY           SKY/WX    TMP DP  RH WIND       PRES   REMARKS
TOWANDA        MOSUNNY   55  48  76 SW14G20   29.71R
SCRANTON       CLOUDY    57  50  77 SW10      29.71R
MOUNT POCONO   CLOUDY    51  46  83 W21G28    29.71R
HAZLETON       PTSUNNY   54  46  76 W12G20    29.77R
LEHIGHTON      FAIR      59  50  72 W8        29.75R
ALLENTOWN      PTSUNNY   58  50  75 W12G23    29.74R
QN CITY/ALNTWN CLOUDY    59  50  72 W8G17     29.77R
QUAKERTOWN*    MOSUNNY   59  52  77 W9G18     29.76R
PERKASIE*      PTSUNNY   57  54  88 W12G21    29.76R
DOYLESTOWN     PTSUNNY   60  51  72 W12G18    29.75R
READING        PTSUNNY  N/A N/A N/A MISG      29.75R
LANCASTER      FAIR      62  51  67 W14G24    29.78R
COATESVILLE    FAIR      59  52  77 W10G21    29.80R
WEST CHESTER   FAIR      61  52  72 W14G20    29.78R
POTTSTOWN      FAIR      59  51  75 W9G22     29.78R
BLUE BELL      FAIR      61  53  75 W9G21     29.77R
NORTH PHILA    FAIR      63  52  67 W21G28    29.78R
PHILADELPHIA   FAIR      62  53  72 W18       29.78R
$$



 

View Past Reports for State College, PA.

Products Courtesy of NOAA-NWS
NWS Information Parsing Script by Ken True at Saratoga Weather - Script by SE Lincoln Weather.